Weather observations for the past three days for
Charlestown
Imperial (Metric)
Date Time (ast) Wind (mph) Vis. (mi.) Weather Sky Cond. Temperature (ºF) Relative Humidity Wind Chill (°F) Heat Index (°F) Pressure Precipitation (in)
Air Dwpt 6 hour altimeter (in) sea level (mb) 1 hr 3 hr 6 hr
Max. Min.
06 13:00 E 10 0.00 Showers in Vicinity FEW012TCU 86 82.4 89% 105 0 0.0
06 12:00 E 18 0.00 Showers in Vicinity FEW012TCU 86 80.6 84% 102 0 0.0
06 11:00 E 9 0.00 Showers in Vicinity FEW012TCU 84.2 80.6 89% 98 0 0.0
06 10:00 E 16 0.00 Showers in Vicinity FEW016TCU 84.2 82.4 94% 101 0 0.0
06 08:00 E 10 0.00 Showers in Vicinity FEW012TCU 82.4 82.4 100% 96 0 0.0
06 07:00 E 8 0.00 Light Showers Rain FEW016TCU 80.6 80.6 100% 89 0 0.0
05 17:00 E 12 0.00 A Few Clouds FEW022 84.2 0 0% 0 0.0
05 16:00 E 9 0.00 A Few Clouds FEW022 84.2 0 0% 0 0.0
05 15:00 E 12 0.00 A Few Clouds FEW022 86 0 0% 0 0.0
05 14:00 E 14 0.00 Partly Cloudy SCT020 86 0 0% 0 0.0
05 13:00 SE 15 0.00 Partly Cloudy SCT022 86 80.6 84% 102 0 0.0
05 11:00 E 17 0.00 Mostly Cloudy BKN020 86 80.6 84% 102 0 0.0
05 10:00 E 6 0.00 Partly Cloudy SCT016 82.4 0 0% 0 0.0
05 08:00 E 8 0.00 Light Showers Rain BKN016 78.8 0 0% 0 0.0
05 07:00 E 17 0.00 Partly Cloudy SCT018 80.6 0 0% 0 0.0
04 17:00 E 9 0.00 Partly Cloudy SCT018 84.2 0 0% 0 0.0
04 16:00 SE 8 0.00 Partly Cloudy SCT018 84.2 0 0% 0 0.0
04 15:00 E 7 0.00 Partly Cloudy SCT018 86 0 0% 0 0.0
04 14:00 SE 10 0.00 Partly Cloudy SCT018 84.2 0 0% 0 0.0
04 12:00 E 17 0.00 Showers in Vicinity SCT018 BKN046 84.2 0 0% 0 0.0
04 11:00 E 14 0.00 Mostly Cloudy BKN014 BKN045 82.4 0 0% 0 0.0
04 10:00 SE 14 0.00 Showers in Vicinity BKN012 BKN045 84.2 0 0% 0 0.0
04 09:00 E 13 0.00 Showers in Vicinity BKN016 BKN046 80.6 0 0% 0 0.0
04 08:00 E 14 0.00 Showers in Vicinity BKN016 SCT046 82.4 0 0% 0 0.0
04 07:00 E 15 0.00 Partly Cloudy SCT018 SCT046 80.6 0 0% 0 0.0
03 19:00 E 14 0.00 Partly Cloudy SCT018 80.6 0 0% 0 0.0
03 18:00 E 14 0.00 Partly Cloudy SCT018 82.4 0 0% 0 0.0
03 17:00 E 15 0.00 Partly Cloudy SCT018 82.4 0 0% 0 0.0
03 16:00 E 16 0.00 Mostly Cloudy BKN019 84.2 0 0% 0 0.0
03 15:00 E 17 0.00 Mostly Cloudy BKN019 86 0 0% 0 0.0
03 14:00 E 16 0.00 Mostly Cloudy BKN020 86 0 0% 0 0.0
Date Time (ast) Wind (mph) Vis. (mi.) Weather Sky Cond. Air Dwpt Max. Min. Relative Humidity Wind Chill (°F) Heat Index (°F) altimeter (in) sea level (mb) 1 hr 3 hr 6 hr
6 hour
Temperature (ºF) Pressure Precipitation (in)